Location: Aulus
(42.7909°N, 1.3399°E)
Time: 13:09:27
(UTC+00:00)

deb Kosmos- 1980 - Pass Details

Date: 13 October 2025
Orbit: 834 x 854 km, 71.0° (Epoch: 16 November)

Event Time Altitude Azimuth Distance (km) Brightness Sun altitude
Rises 20:37:15 0° 338° (NNW) 3,403 ? -37.0°
Reaches altitude 10° 20:39:45 10° 343° (NNW) 2,462 ? -37.4°
Enters shadow 20:41:19 19° 348° (NNW) 1,903 ? -37.6°
